Burley, ID

2:55 PM MDT on March 27, 2017 (GMT -0600)
Burley Municipal

Weather History for KBYI - November, 2012

Change the Weather History Date:

Tuesday, November 20, 2012

  Actual Average Record
Temperature  
Mean Temperature 49 °F 34 °F  
Max Temperature 52 °F 43 °F 67 °F (1966)
Min Temperature 45 °F 24 °F 9 °F (1977)
Degree Days  
Heating Degree Days 16 31  
Month to date heating degree days 444 544  
Since 1 July heating degree days 1032 1352  
Cooling Degree Days 0 0  
Month to date cooling degree days 0 0  
Year to date cooling degree days 546 365  
Moisture  
Dew Point 38 °F    
Average Humidity 68    
Maximum Humidity 86    
Minimum Humidity 50    
Precipitation  
Precipitation 0.07 in 0.03 in 0.40 in (1950)
Month to date precipitation 0.53 0.60  
Year to date precipitation 8.01 8.67  
Sea Level Pressure  
Sea Level Pressure 30.01 in    
Wind  
Wind Speed 12 mph (South)    
Max Wind Speed 24 mph    
Max Gust Speed 31 mph    
Visibility 10 miles    
Events Rain    
T = Trace of Precipitation, MM = Missing Value Source: NWS Daily Summary

Daily Weather History Graph

Daily Weather History Graph

Search for Another Location

Airport or City:

Trip Planner

Search our weather history database for the weather conditions in past years. The results will help you decide how hot, cold, wet, or windy it might be!

Date:

Astronomy

Nov. 20, 2012 Rise Set
Actual Time 7:33 AM MST 5:08 PM MST
Civil Twilight 7:02 AM MST 5:38 PM MST
Nautical Twilight 6:27 AM MST 6:13 PM MST
Astronomical Twilight 5:54 AM MST 6:46 PM MST
Moon 1:04 PM MST (11/20) No Moon Set
Length of Visible Light 10h 36m
Length of Day
9h 35m
First Quarter, 52% of the Moon is Illuminated
Nov 20
First Quarter
Nov 28
Full
Dec 6
Last Quarter
Dec 13
New
Dec 19
First Quarter

Hourly Weather History & Observations

Time (MST) Temp. Windchill Dew Point Humidity Pressure Visibility Wind Dir Wind Speed Gust Speed Precip Events Conditions
12:53 AM 46.9 °F - 37.0 °F 68% 30.09 in 10.0 mi SSW 11.5 mph - N/A   Partly Cloudy
1:53 AM 50.0 °F - 36.0 °F 59% 30.08 in 10.0 mi SSW 20.7 mph 26.5 mph N/A   Mostly Cloudy
2:53 AM 51.1 °F - 36.0 °F 56% 30.07 in 10.0 mi South 17.3 mph 23.0 mph N/A   Overcast
3:53 AM 51.1 °F - 36.0 °F 56% 30.08 in 10.0 mi SSW 16.1 mph - N/A   Overcast
5:53 AM 50.0 °F - 37.0 °F 61% 30.09 in 10.0 mi SSW 12.7 mph - N/A   Overcast
6:53 AM 46.9 °F - 41.0 °F 80% 30.11 in 10.0 mi South 5.8 mph - 0.00 in Rain Light Rain
7:53 AM 46.0 °F 42.5 °F 42.1 °F 86% 30.11 in 10.0 mi SSE 6.9 mph - 0.03 in Rain Light Rain
8:53 AM 46.0 °F 42.5 °F 41.0 °F 83% 30.10 in 10.0 mi South 6.9 mph - 0.01 in Rain Light Rain
9:53 AM 46.9 °F - 42.1 °F 83% 30.10 in 10.0 mi South 6.9 mph - 0.02 in Rain Light Rain
10:53 AM 46.9 °F - 42.1 °F 83% 30.10 in 10.0 mi SE 6.9 mph - 0.01 in Rain Light Rain
12:53 PM 48.9 °F - 44.1 °F 83% 30.02 in 10.0 mi Calm Calm - 0.00 in   Overcast
1:53 PM 48.9 °F - 43.0 °F 80% 29.97 in 10.0 mi ESE 3.5 mph - 0.00 in   Overcast
2:53 PM 48.9 °F - 44.1 °F 83% 29.96 in 10.0 mi North 3.5 mph - N/A   Overcast
3:53 PM 50.0 °F - 42.1 °F 74% 29.94 in 10.0 mi ESE 3.5 mph - N/A   Partly Cloudy
4:53 PM 51.1 °F - 39.0 °F 63% 29.94 in 10.0 mi South 8.1 mph - N/A   Clear
5:53 PM 51.1 °F - 37.0 °F 59% 29.92 in 10.0 mi SSW 12.7 mph - N/A   Scattered Clouds
6:53 PM 51.1 °F - 35.1 °F 54% 29.93 in 10.0 mi SSW 17.3 mph - N/A   Scattered Clouds
7:53 PM 51.1 °F - 34.0 °F 52% 29.92 in 10.0 mi SSW 18.4 mph 28.8 mph N/A   Scattered Clouds
8:53 PM 50.0 °F - 34.0 °F 54% 29.92 in 10.0 mi SSW 19.6 mph 28.8 mph N/A   Clear
9:53 PM 48.9 °F - 34.0 °F 56% 29.91 in 10.0 mi SSW 20.7 mph 26.5 mph N/A   Clear
10:53 PM 50.0 °F - 34.0 °F 54% 29.89 in 10.0 mi South 19.6 mph 28.8 mph N/A   Overcast
11:53 PM 48.9 °F - 34.0 °F 56% 29.88 in 10.0 mi South 16.1 mph 24.2 mph N/A   Overcast